Location: Newark
(23.5328°S, 46.7919°W)
Time: 18:24:32
(UTC+00:00)

Envisat - Pass Details

Date: 14 March 2021
Orbit: 764 x 766 km, 98.1° (Epoch: 17 April)

Event Time Altitude Azimuth Distance (km) Brightness Sun altitude
Rises 08:28:33 0° 1° (N) 3,211 6.2 -10.0°
Reaches altitude 10° 08:30:54 10° 355° (N) 2,292 5.4 -9.4°
Maximum altitude 08:35:47 49° 280° (W) 979 3.2 -8.3°
Drops below altitude 10° 08:40:44 10° 205° (SSW) 2,318 5.3 -7.2°
Sets 08:43:08 0° 199° (SSW) 3,251 6.1 -6.6°
